This demonstration page uses our WeatherBlox Daily Observations layout. Learn more.

Left ArrowRight Arrow

38.88101, -77.10428

Hourly Observations for May 4, 2016

Temp ( °F °C ) Dew Point ( °F °C ) Humidity (%) Winds ( mph kmh ) Pressure ( in mb ) Visibility ( mi km ) Precip ( " mm )
12:15 am 00:15 Cloudy with Light Rain 58 14.4 55 12.8 90 90 NE 10 17 29.80 1009 10 16 N/A
12:52 am 00:52 Cloudy with Light Rain 58 14.4 54 12.2 87 87 NE 8 13 29.78 1009 6 10 0.01 0.25
1:11 am 01:11 Cloudy with Light Rain 58 14.4 54 12.2 87 87 ENE 10 17 29.77 1008 6 10 0.07 1.78
1:52 am 01:52 Mostly Cloudy with Drizzle 57 13.9 55 12.8 93 93 ENE 9 15 29.76 1008 8 13 0.07 1.78
2:13 am 02:13 Cloudy with Drizzle 57 14 55 13 94 94 E 6 9 29.77 1008 10 16 N/A
2:25 am 02:25 Mostly Cloudy 57 13.9 54 12.2 90 90 ENE 7 11 29.74 1007 10 16 N/A
2:52 am 02:52 Mostly Cloudy 56 13.3 54 12.2 93 93 ENE 8 13 29.74 1007 10 16 N/A
3:45 am 03:45 Cloudy 56 13.3 54 12.2 93 93 ENE 9 15 29.74 1007 10 16 N/A
3:52 am 03:52 Cloudy 56 13.3 54 12.2 93 93 ENE 8 13 29.75 1007 10 16 N/A
4:14 am 04:14 Cloudy 55 13 54 12 94 94 E 9 15 29.74 1007 10 16 N/A
4:52 am 04:52 Cloudy 56 13.3 53 11.7 90 90 NE 9 15 29.74 1007 10 16 N/A
5:13 am 05:13 Cloudy 56 13.3 53 11.7 90 90 E 6 9 29.74 1007 10 16 N/A
5:52 am 05:52 Cloudy 55 12.8 53 11.7 93 93 NE 7 11 29.73 1007 10 16 N/A
6:52 am 06:52 Cloudy with Light Rain 54 12.2 52 11.1 93 93 ENE 10 17 29.74 1007 10 16 N/A
7:17 am 07:17 Cloudy with Drizzle 55 12.8 52 11.1 90 90 E 8 13 29.74 1007 10 16 N/A
7:52 am 07:52 Cloudy 55 12.8 51 10.6 87 87 ENE 8 13 29.74 1007 10 16 N/A
8:04 am 08:04 Cloudy 54 12 52 11 94 94 ENE 10 17 29.74 1007 10 16 N/A
8:52 am 08:52 Cloudy 54 12.2 50 10 87 87 E 7 11 29.73 1007 10 16 N/A
9:52 am 09:52 Cloudy 55 12.8 51 10.6 87 87 ENE 8 13 29.73 1007 10 16 N/A
10:52 am 10:52 Cloudy 55 12.8 52 11.1 90 90 NE 5 7 29.73 1007 10 16 N/A
11:40 am 11:40 Cloudy 55 13 52 11 88 88 NE 6 9 29.71 1006 10 16 N/A
11:52 am 11:52 Cloudy 57 13.9 52 11.1 83 83 NNE 6 9 29.72 1006 10 16 N/A
12:40 pm 12:40 Cloudy 57 14 52 11 82 82 N N/A 29.71 1006 10 16 N/A
12:52 pm 12:52 Cloudy 59 15 52 11.1 78 78 NNE 5 7 29.70 1006 10 16 N/A
1:52 pm 13:52 Cloudy 59 15 53 11.7 81 81 NE 6 9 29.68 1005 10 16 N/A
2:52 pm 14:52 Cloudy 59 15 53 11.7 81 81 NE 8 13 29.67 1005 10 16 N/A
3:52 pm 15:52 Cloudy 59 15 53 11.7 81 81 ENE 10 17 29.65 1004 10 16 N/A
4:52 pm 16:52 Cloudy 60 15.6 53 11.7 78 78 E 9 15 29.65 1004 10 16 N/A
5:52 pm 17:52 Cloudy 58 14.4 53 11.7 84 84 ENE 12 19 29.65 1004 10 16 N/A
6:52 pm 18:52 Cloudy 57 13.9 53 11.7 87 87 ENE 13 20 29.66 1005 10 16 N/A
7:52 pm 19:52 Cloudy 56 13.3 53 11.7 90 90 ENE 12 19 29.68 1005 10 16 N/A
8:24 pm 20:24 Cloudy 55 13 54 12 94 94 ENE 14 22 29.68 1005 10 16 N/A
8:37 pm 20:37 Cloudy 56 13.3 53 11.7 90 90 ENE 12 19 29.68 1005 10 16 N/A
8:52 pm 20:52 Cloudy 56 13.3 52 11.1 87 87 ENE 16 26 29.69 1005 10 16 N/A
9:14 pm 21:14 Cloudy 55 13 52 11 88 88 ENE 9 15 29.71 1006 10 16 N/A
9:34 pm 21:34 Cloudy 55 13 52 11 88 88 ENE 12 19 29.68 1005 10 16 N/A
9:42 pm 21:42 Cloudy 55 13 52 11 88 88 NE 13 20 29.68 1005 10 16 N/A
9:44 pm 21:44 Cloudy 55 13 52 11 88 88 ENE 12 19 29.68 1005 10 16 N/A
9:49 pm 21:49 Cloudy 55 13 52 11 88 88 ENE 13 20 29.68 1005 10 16 N/A
9:52 pm 21:52 Cloudy 55 12.8 52 11.1 90 90 ENE 12 19 29.69 1006 10 16 N/A
10:52 pm 22:52 Cloudy 54 12.2 51 10.6 90 90 ENE 12 19 29.70 1006 10 16 N/A
11:52 pm 23:52 Cloudy 54 12.2 50 10 87 87 ENE 13 20 29.71 1006 10 16 N/A

Powered by AerisWeather